Location: Ottawa
(45.4167°N, 75.7000°W)
Time: 01:54:41
(UTC-04:00)

ISS - Pass Details

Date: 08 October 2017
Orbit: 401 x 408 km, 51.6° (Epoch: 18 October)

Event Time Altitude Azimuth Distance (km) Brightness Sun altitude
Rises 21:25:46 0° 297° (WNW) 2,329 1.2 -31.1°
Reaches altitude 10° 21:27:53 10° 292° (WNW) 1,468 -0.1 -31.4°
Enters shadow 21:28:02 11° 292° (WNW) 1,408 -0.2 -31.4°
